Weather History for Torrington, WY

Change the Weather History Date:

Saturday, December 22, 2012

  Actual Average Record
Temperature  
Mean Temperature 35 °F 26 °F  
Max Temperature 51 °F 39 °F 60 °F (2005)
Min Temperature 18 °F 14 °F -23 °F (1998)
Degree Days  
Heating Degree Days 30 38  
Month to date heating degree days 685 829  
Since 1 July heating degree days 2028 2412  
Cooling Degree Days 0 0  
Month to date cooling degree days 0 0  
Year to date cooling degree days 1021 678  
Moisture  
Dew Point 9 °F    
Average Humidity 41    
Maximum Humidity 65    
Minimum Humidity 16    
Precipitation  
Precipitation 0.00 in 0.01 in 0.02 in (2009)
Month to date precipitation 0.04 0.28  
Year to date precipitation 7.04 14.12  
Sea Level Pressure  
Sea Level Pressure 29.99 in    
Wind  
Wind Speed 6 mph (SSW)    
Max Wind Speed 20 mph    
Max Gust Speed 28 mph    
Visibility 10 miles    
Events      
T = Trace of Precipitation, MM = Missing Value Source: NWS Daily Summary

Daily Weather History Graph

Daily Weather History Graph

Search for Another Location

Airport:

Trip Planner

Search our weather history database for the weather conditions in past years. The results will help you decide how hot, cold, wet, or windy it might be!

Date:

Astronomy

Dec. 22, 2012 Rise Set
Actual Time 7:22 AM MST 4:28 PM MST
Civil Twilight 6:50 AM MST 5:00 PM MST
Nautical Twilight 6:15 AM MST 5:35 PM MST
Astronomical Twilight 5:41 AM MST 6:10 PM MST
Moon 12:50 PM MST (12/22) 2:06 AM MST (12/22)
Length of Visible Light 10h 10m
Length of Day
9h 06m
Waxing Gibbous, 74% of the Moon is Illuminated
Dec 22
Waxing Gibbous
Dec 28
Full
Jan 4
Last Quarter
Jan 11
New
Jan 18
First Quarter

Hourly Weather History & Observations

Time (MST) Temp. Windchill Dew Point Humidity Pressure Visibility Wind Dir Wind Speed Gust Speed Precip Events Conditions
12:53 AM 27.0 °F 19.5 °F 7.0 °F 43% 30.02 in 10.0 mi West 6.9 mph - N/A   Clear
1:53 AM 25.0 °F - 7.0 °F 46% 30.02 in 10.0 mi Calm Calm - N/A   Clear
2:53 AM 23.0 °F 14.7 °F 7.0 °F 50% 30.03 in 10.0 mi West 6.9 mph - N/A   Clear
3:53 AM 32.0 °F 22.1 °F 8.1 °F 37% 30.00 in 10.0 mi WNW 13.8 mph - N/A   Clear
4:53 AM 33.1 °F 24.9 °F 7.0 °F 34% 30.01 in 10.0 mi West 10.4 mph - N/A   Clear
5:53 AM 32.0 °F 24.8 °F 6.1 °F 34% 30.03 in 10.0 mi WSW 8.1 mph - N/A   Clear
6:53 AM 28.0 °F 22.8 °F 6.1 °F 39% 30.06 in 10.0 mi NW 4.6 mph - N/A   Clear
7:53 AM 32.0 °F 28.7 °F 5.0 °F 32% 30.05 in 10.0 mi West 3.5 mph - N/A   Clear
8:53 AM 37.0 °F 34.5 °F 8.1 °F 30% 30.06 in 10.0 mi North 3.5 mph - N/A   Clear
9:53 AM 37.0 °F 31.0 °F 12.9 °F 37% 30.08 in 10.0 mi SSE 8.1 mph - N/A   Clear
10:53 AM 42.1 °F - 9.0 °F 26% 30.05 in 10.0 mi Calm Calm - N/A   Clear
11:53 AM 46.9 °F - 7.0 °F 20% 30.02 in 10.0 mi SSE 4.6 mph - N/A   Clear
12:53 PM 50.0 °F - 8.1 °F 18% 29.97 in 10.0 mi WSW 4.6 mph - N/A   Clear
1:53 PM 50.0 °F - 7.0 °F 18% 29.96 in 10.0 mi WSW 5.8 mph - N/A   Clear
2:53 PM 50.0 °F - 7.0 °F 18% 29.96 in 10.0 mi WSW 4.6 mph - N/A   Clear
3:53 PM 48.9 °F - 6.1 °F 18% 29.94 in 10.0 mi Calm Calm - N/A   Clear
4:53 PM 37.9 °F 34.4 °F 12.0 °F 35% 29.95 in 10.0 mi South 4.6 mph - N/A   Clear
5:53 PM 43.0 °F 41.3 °F 9.0 °F 25% 29.94 in 10.0 mi SSE 3.5 mph - N/A   Clear
6:53 PM 36.0 °F 29.0 °F 14.0 °F 41% 29.98 in 10.0 mi SE 9.2 mph - N/A   Clear
7:53 PM 30.0 °F 21.1 °F 15.1 °F 54% 29.96 in 10.0 mi East 10.4 mph - N/A   Clear
8:53 PM 28.9 °F 22.8 °F 12.9 °F 51% 29.94 in 10.0 mi SE 5.8 mph - N/A   Clear
9:53 PM 27.0 °F 18.7 °F 12.9 °F 56% 29.94 in 10.0 mi ESE 8.1 mph - N/A   Clear
10:53 PM 23.0 °F 13.9 °F 12.0 °F 63% 29.92 in 10.0 mi ESE 8.1 mph - N/A   Clear
11:53 PM 21.0 °F 13.4 °F 12.0 °F 68% 29.90 in 10.0 mi ENE 5.8 mph - N/A   Clear